Regional Weather Roundup
Issued by NWS Jackson, KY

Home | Current Version | Previous Version | Text Only | Print | Product List | Glossary Off
Versions: 1 2 3 4 5 6 7 8 9 10 11 12 13 14 15 16 17 18 19 20 21 22 23 24 25 26 27 28 29 30 31 32 33 34 35 36 37 38 39 40 41 42 43 44 45 46 47 48 49 50

000
ASUS43 KJKL 271710
RWRJKL

EAST KENTUCKY HOURLY WEATHER ROUNDUP
NATIONAL WEATHER SERVICE JACKSON KY
100 PM EDT WED MAY 27 2015

NOTE: "FAIR" INDICATES FEW OR NO CLOUDS BELOW 12,000 FEET WITH
NO SIGNIFICANT WEATHER AND/OR OBSTRUCTIONS TO VISIBILITY.

* THESE REPORTS ARE NOT UNDER NWS QUALITY CONTROL AND MAY NOT
  REPORT WEATHER SUCH AS PRECIPITATION AND FOG.

KYZ079-080-083-085-087-088-110-112-115-119-120-271800
...EASTERN KENTUCKY...

CITY           SKY/WX    TMP DP  RH WIND       PRES   REMARKS
JACKSON        MOSUNNY   75  65  70 VRB3      30.23S
LONDON         PTSUNNY   76  61  59 S8        30.23F
SOMERSET*      PTSUNNY   73  63  68 SW7       30.22S
MONTICELLO*    PTSUNNY   79  66  64 SW7       30.24S
MIDDLESBORO*   CLOUDY    75  63  66 SE7       30.24F
HARLAN APT*    CLOUDY    75  57  53 W3        30.25F
HAZARD APT*    CLOUDY    79  63  57 W6        30.23F
BLACK MTN*       N/A     66  57  72 SW3         N/A
PIKEVILLE APT* PTSUNNY   77  64  65 W3        30.23S
BIG SANDY*     PTSUNNY   77  65  67 NW3       30.23R
MOREHEAD APT*  PTSUNNY   79  64  61 S13G18    30.20F
$$

KYZ035-036-041-042-044-050-067-078-099-271800
...CENTRAL KENTUCKY...

CITY           SKY/WX    TMP DP  RH WIND       PRES   REMARKS
MT STERLING*   MOSUNNY   77  64  65 SW9G18    30.20S
FLEMING/MASON* PTSUNNY   79  66  65 SW10G16   30.18S
DANVILLE*      PTSUNNY   77  63  61 SW9       30.20S
RICHMOND*      PTSUNNY   77  63  61 SW10      30.19F
LEXINGTON      MOSUNNY   79  66  64 SW14      30.17S
FRANKFORT      PTSUNNY   79  64  60 S13       30.15S
$$

KYZ091>093-OHZ055-061-077-WVZ005-015-034-035-042-271800
...SOUTHERN OHIO/WEST VIRGINIA...

CITY           SKY/WX    TMP DP  RH WIND       PRES   REMARKS
COVINGTON      PTSUNNY   78  65  63 S15G22    30.13F
COLUMBUS       MOSUNNY   77  63  61 SW14      30.12S
DAYTON         PTSUNNY   79  64  60 SW16      30.11S
WILMINGTON     MOSUNNY   78  61  55 SW14      30.12F
HUNTINGTON     PTSUNNY   79  64  60 SW10G16   30.18S
CHARLESTON     PTSUNNY   79  65  62 SW9       30.19S
PINEVILLE*     CLOUDY    77  64  63 MISG      30.29S
BECKLEY        PTSUNNY   76  57  51 W9        30.27S
BLUEFIELD      PTSUNNY   76  55  48 SW7       30.30S
$$

VAZ002-007-008-TNZ017-027-036-066-071-271800
...SOUTHWEST VIRGINIA/EAST TENNESSEE...

CITY           SKY/WX    TMP DP  RH WIND       PRES   REMARKS
WISE*          MOSUNNY   73  54  49 SW8       30.30F
JONESVILLE*    PTSUNNY   75  59  57 W5        30.28S
ABINGDON*      MOSUNNY   76  60  56 NW3       30.28S
BRISTOL        MOSUNNY   79  58  48 SW8       30.25F
KNOXVILLE      PTSUNNY   78  59  51 SW10      30.24S
OAK RIDGE      PTSUNNY   79  62  56 MISG      30.25F
CROSSVILLE     PTSUNNY   76  62  62 VRB6      30.27S
NASHVILLE      PTSUNNY   82  68  62 VRB6      30.18F
$$

...KEY TO REMARKS...
VSB - VISIBILITY IN MILES
WCI - WIND CHILL INDEX
HX  - HEAT INDEX

$$


USA.gov is the U.S. government's official web portal to all federal, state and local government web resources and services.